GW5527 Weather Reports


time (UTC)temp
C
wind
direction
speed
KPH
gust
KPH
rain 1hr
cm
rain 24hr
cm
rain mn
cm
humidity
%
barometer
mb
20260504081852 11 216 4.8 4.8 0.00 0.00 0.00 51 961.0
20260504081349 11 186 9.7 9.7 0.00 0.00 0.00 51 961.0
20260504080844 11 180 4.8 4.8 0.00 0.00 0.00 51 961.0
20260504080342 11 204 3.2 3.2 0.00 0.00 0.00 51 961.0
20260504070309 12 227 3.2 3.2 0.00 0.00 0.00 47 962.0
20260504060230 12 180 0.0 0.0 0.00 0.00 0.00 48 963.0
20260504050657 13 217 0.0 0.0 0.00 0.00 0.00 45 963.3
20260504050154 13 222 3.2 3.2 0.00 0.00 0.00 43 963.7
20260504045652 13 239 6.4 6.4 0.00 0.00 0.00 42 963.7
20260504045151 13 233 3.2 3.2 0.00 0.00 0.00 41 964.1
20260504044649 13 210 3.2 3.2 0.00 0.00 0.00 43 964.1
20260504044146 13 204 3.2 3.2 0.00 0.00 0.00 43 964.1
20260504043643 13 216 4.8 4.8 0.00 0.00 0.00 43 964.1
20260504043140 13 206 3.2 3.2 0.00 0.00 0.00 44 964.1
20260504042638 13 198 0.0 0.0 0.00 0.00 0.00 43 964.1
20260504042134 13 192 3.2 3.2 0.00 0.00 0.00 44 964.1
20260504041630 13 192 0.0 0.0 0.00 0.00 0.00 43 964.4
20260504041126 13 192 3.2 3.2 0.00 0.00 0.00 42 964.4
20260504040624 13 192 3.2 3.2 0.00 0.00 0.00 43 964.4
20260504040121 13 192 3.2 3.2 0.00 0.00 0.00 44 964.8
20260504035617 13 192 3.2 3.2 0.00 0.00 0.00 43 964.8
20260504035114 13 192 0.0 0.0 0.00 0.00 0.00 43 964.8
20260504034612 13 192 0.0 0.0 0.00 0.00 0.00 44 964.8
20260504034108 13 192 0.0 0.0 0.00 0.00 0.00 42 964.8
20260504033606 13 192 0.0 0.0 0.00 0.00 0.00 43 964.8
20260504033103 13 192 0.0 0.0 0.00 0.00 0.00 43 964.8
20260504032600 13 192 0.0 0.0 0.00 0.00 0.00 41 965.1
20260504032057 13 192 3.2 3.2 0.00 0.00 0.00 41 965.1
20260504031554 14 192 0.0 0.0 0.00 0.00 0.00 40 965.1
20260504031050 14 186 0.0 0.0 0.00 0.00 0.00 40 965.1
20260504030548 14 186 3.2 3.2 0.00 0.00 0.00 40 965.1
20260504030043 14 186 0.0 0.0 0.00 0.00 0.00 42 965.1
20260504025541 13 186 0.0 0.0 0.00 0.00 0.00 43 965.1
20260504025037 13 186 0.0 0.0 0.00 0.00 0.00 42 965.1
20260504024535 14 186 0.0 0.0 0.00 0.00 0.00 42 965.1
20260504024031 14 186 0.0 0.0 0.00 0.00 0.00 41 965.1
20260504023528 14 186 0.0 0.0 0.00 0.00 0.00 40 964.8
20260504023024 15 186 0.0 0.0 0.00 0.00 0.00 41 965.1
20260504022520 15 186 0.0 0.0 0.00 0.00 0.00 39 965.1
20260504022017 15 186 0.0 0.0 0.00 0.00 0.00 39 964.8
20260504021514 15 186 0.0 0.0 0.00 0.00 0.00 41 964.8
20260504021011 15 186 0.0 0.0 0.00 0.00 0.00 39 965.1
20260504020508 15 258 0.0 0.0 0.00 0.00 0.00 40 964.8
20260504020004 15 258 0.0 0.0 0.00 0.00 0.00 38 964.8
20260504015500 16 258 0.0 0.0 0.00 0.00 0.00 38 964.8
20260504014956 16 258 0.0 0.0 0.00 0.00 0.00 37 965.1
20260504014453 16 258 0.0 0.0 0.00 0.00 0.00 36 965.1
20260504013950 16 258 0.0 0.0 0.00 0.00 0.00 35 965.1
20260504013449 16 258 0.0 0.0 0.00 0.00 0.00 36 964.8
20260504012944 17 258 0.0 0.0 0.00 0.00 0.00 34 964.8
20260504012442 17 258 0.0 0.0 0.00 0.00 0.00 33 964.8
20260504011940 18 258 0.0 0.0 0.00 0.00 0.00 31 965.1
20260504011436 18 258 0.0 0.0 0.00 0.00 0.00 31 964.8
20260504010932 18 258 0.0 0.0 0.00 0.00 0.00 29 965.1
20260504010428 18 258 0.0 0.0 0.00 0.00 0.00 30 964.8
20260504005924 19 258 3.2 3.2 0.00 0.00 0.00 28 965.1
20260504005421 19 250 0.0 0.0 0.00 0.00 0.00 28 964.8
20260504004919 20 312 0.0 0.0 0.00 0.00 0.00 27 964.8
20260504004416 20 289 0.0 0.0 0.00 0.00 0.00 28 964.8
20260504003913 20 250 3.2 3.2 0.00 0.00 0.00 27 965.1
20260504003409 20 312 3.2 3.2 0.00 0.00 0.00 27 965.1
20260504002906 20 264 6.4 6.4 0.00 0.00 0.00 27 965.1
20260504002403 20 296 6.4 6.4 0.00 0.00 0.00 26 965.5
20260504001900 21 300 8.0 8.0 0.00 0.00 0.00 25 965.1
20260504001358 20 258 8.0 9.7 0.00 0.00 0.00 25 965.5
20260504000854 20 246 11.3 12.9 0.00 0.00 0.00 24 965.1
20260504000353 21 298 6.4 6.4 0.00 0.00 0.00 26 965.1
20260503235849 21 312 3.2 3.2 0.00 0.00 0.00 26 965.1
20260503235347 21 12 12.9 12.9 0.00 0.00 0.00 26 965.5
20260503234844 21 246 3.2 3.2 0.00 0.00 0.00 25 965.5
20260503234341 21 288 6.4 8.0 0.00 0.00 0.00 25 965.5
20260503233839 21 331 3.2 3.2 0.00 0.00 0.00 25 965.5
20260503233335 21 270 9.7 11.3 0.00 0.00 0.00 25 965.5
20260503232831 21 310 6.4 6.4 0.00 0.00 0.00 24 965.5
20260503232329 22 139 9.7 9.7 0.00 0.00 0.00 24 965.8
20260503231827 22 258 3.2 3.2 0.00 0.00 0.00 23 965.5
20260503231323 21 25 8.0 8.0 0.00 0.00 0.00 25 965.8
20260503230819 21 322 12.9 14.5 0.00 0.00 0.00 25 965.8
20260503230317 21 284 8.0 8.0 0.00 0.00 0.00 25 965.5
20260503225814 22 263 9.7 11.3 0.00 0.00 0.00 26 965.5
20260503225309 22 288 8.0 8.0 0.00 0.00 0.00 25 965.8
20260503224806 21 262 8.0 8.0 0.00 0.00 0.00 23 965.8
20260503224304 22 325 9.7 9.7 0.00 0.00 0.00 25 965.8
20260503223801 21 255 6.4 6.4 0.00 0.00 0.00 25 965.8
20260503223259 22 234 6.4 6.4 0.00 0.00 0.00 25 965.8
20260503222755 21 290 6.4 6.4 0.00 0.00 0.00 25 965.8
20260503222253 21 354 6.4 8.0 0.00 0.00 0.00 25 965.8
20260503221751 21 305 9.7 9.7 0.00 0.00 0.00 24 965.8
20260503221249 22 273 6.4 8.0 0.00 0.00 0.00 25 965.8
20260503220745 21 272 8.0 8.0 0.00 0.00 0.00 24 965.8
20260503220242 21 263 6.4 6.4 0.00 0.00 0.00 27 965.8
20260503215739 21 294 9.7 9.7 0.00 0.00 0.00 26 965.8
20260503215236 22 271 9.7 9.7 0.00 0.00 0.00 25 965.8
20260503214734 21 258 8.0 8.0 0.00 0.00 0.00 25 965.8
20260503214230 21 60 9.7 9.7 0.00 0.00 0.00 25 965.8
20260503213729 21 14 22.5 25.7 0.00 0.00 0.00 24 965.8
20260503213225 21 288 9.7 9.7 0.00 0.00 0.00 25 965.8
20260503212722 21 275 6.4 6.4 0.00 0.00 0.00 25 966.1
20260503212220 21 289 9.7 11.3 0.00 0.00 0.00 26 965.8
20260503211717 21 285 6.4 6.4 0.00 0.00 0.00 26 966.1
20260503211213 21 245 9.7 9.7 0.00 0.00 0.00 27 966.1
20260503210709 21 292 12.9 14.5 0.00 0.00 0.00 28 966.5
20260503210207 21 30 14.5 17.7 0.00 0.00 0.00 28 966.1
20260503205701 21 252 9.7 9.7 0.00 0.00 0.00 28 966.1
20260503205158 21 326 19.3 20.9 0.00 0.00 0.00 28 966.1
20260503204654 21 6 30.6 33.8 0.00 0.00 0.00 26 966.5
20260503204152 21 6 11.3 11.3 0.00 0.00 0.00 27 966.5
20260503203649 21 348 19.3 20.9 0.00 0.00 0.00 27 966.1
20260503203147 21 6 14.5 14.5 0.00 0.00 0.00 28 966.5
20260503202644 21 330 6.4 6.4 0.00 0.00 0.00 28 966.5
20260503202142 21 276 11.3 11.3 0.00 0.00 0.00 28 966.5
20260503201640 21 271 9.7 9.7 0.00 0.00 0.00 27 966.5
20260503201137 21 313 11.3 12.9 0.00 0.00 0.00 27 966.8
20260503200633 21 321 24.1 27.4 0.00 0.00 0.00 27 966.8
20260503200129 21 18 19.3 22.5 0.00 0.00 0.00 27 966.5
20260503195621 21 2 11.3 11.3 0.00 0.00 0.00 27 966.5
20260503195117 21 270 14.5 14.5 0.00 0.00 0.00 28 966.5
20260503194615 20 341 24.1 29.0 0.00 0.00 0.00 29 966.5
20260503194115 21 294 14.5 17.7 0.00 0.00 0.00 30 966.5
20260503193613 21 36 12.9 14.5 0.00 0.00 0.00 29 966.5
20260503193108 20 336 14.5 17.7 0.00 0.00 0.00 29 966.5
20260503192604 20 312 20.9 20.9 0.00 0.00 0.00 29 966.5
20260503192100 20 251 6.4 6.4 0.00 0.00 0.00 30 966.8
20260503191557 20 301 22.5 25.7 0.00 0.00 0.00 30 966.8
20260503191053 20 344 14.5 14.5 0.00 0.00 0.00 30 966.8
20260503190550 20 288 4.8 4.8 0.00 0.00 0.00 30 966.5
20260503190048 21 312 9.7 11.3 0.00 0.00 0.00 31 966.5
20260503185544 20 9 14.5 17.7 0.00 0.00 0.00 31 966.8
20260503185038 20 270 9.7 11.3 0.00 0.00 0.00 35 966.8
20260503184534 20 341 14.5 14.5 0.00 0.00 0.00 32 966.8
20260503184031 20 334 8.0 8.0 0.00 0.00 0.00 33 966.8
20260503183528 20 295 8.0 9.7 0.00 0.00 0.00 31 966.8
20260503183025 20 9 14.5 14.5 0.00 0.00 0.00 31 966.8
20260503182523 20 336 9.7 11.3 0.00 0.00 0.00 31 966.8
20260503182021 20 6 14.5 14.5 0.00 0.00 0.00 32 966.8
20260503181517 20 300 8.0 9.7 0.00 0.00 0.00 33 966.8
20260503181013 20 348 14.5 14.5 0.00 0.00 0.00 31 967.1
20260503180511 20 281 24.1 29.0 0.00 0.00 0.00 31 967.1
20260503180009 20 324 17.7 19.3 0.00 0.00 0.00 30 967.1
20260503175506 20 322 19.3 24.1 0.00 0.00 0.00 34 967.5
20260503175002 19 312 20.9 24.1 0.00 0.00 0.00 31 967.1
20260503174501 19 346 19.3 20.9 0.00 0.00 0.00 31 967.1
20260503173956 19 336 14.5 14.5 0.00 0.00 0.00 33 967.1
20260503173452 19 48 14.5 14.5 0.00 0.00 0.00 33 967.5
20260503172948 19 324 14.5 14.5 0.00 0.00 0.00 33 967.1
20260503172446 18 330 9.7 9.7 0.00 0.00 0.00 35 967.5
20260503171942 19 338 12.9 14.5 0.00 0.00 0.00 34 967.1
20260503171438 19 306 27.4 30.6 0.00 0.00 0.00 34 967.5
20260503170936 18 280 14.5 14.5 0.00 0.00 0.00 33 967.5
20260503170432 18 318 20.9 24.1 0.00 0.00 0.00 34 967.5
20260503150825 16 329 9.7 9.7 0.00 0.00 0.00 45 966.8
20260503150321 16 18 9.7 11.3 0.00 0.00 0.00 45 966.8
20260503140245 13 312 17.7 19.3 0.00 0.00 0.00 52 966.5
20260503131215 12 318 8.0 9.7 0.00 0.00 0.00 55 966.1
20260503130712 12 300 11.3 11.3 0.00 0.00 0.00 54 966.1
20260503130209 11 291 8.0 8.0 0.00 0.00 0.00 54 966.1
20260503120135 9 172 3.2 3.2 0.00 0.00 0.00 55 965.5
20260503110603 9 174 3.2 3.2 0.00 0.00 0.00 56 965.5